User: anonymous   Login
Location: Caltech
(34.1382°N, 118.1253°W)
Time: 19:11:17
(UTC-07:00)
Language:

Cosmos 1833 Rocket - Orbit

View from above orbital plane
View from above orbital plane
View from above satellite
View from above satellite

Ground track
Ground track

The orbit data is extracted from the following two-line orbital elements,

1 17590U 87027B   17234.57089729  .00000033  00000-0  40449-4 0  9991
2 17590  71.0044  10.1866 0006251 221.2761 138.7891 14.16744485573520
Epoch (UTC): 22 August 2017 13:42:05
Eccentricity: 0.0006251
inclination: 71.0044°
perigee height: 832 km
apogee height: 841 km
right ascension of ascending node: 10.1866°
argument of perigee: 221.2761°
revolutions per day: 14.16744485
mean anomaly at epoch: 138.7891°
orbit number at epoch: 57352

The dashed part of the orbit path shows where the satellite is in the earth's shadow,  

DLR